Weather Roundup
Issued by NWS Chicago, IL

Home | Current Version | Previous Version | Graphics & Text | Print | Product List | Glossary On
Versions: 1 2 3 4 5 6 7 8 9 10 11 12 13 14 15 16 17 18 19 20 21 22 23 24 25 26 27 28 29 30 31 32 33 34 35 36 37 38 39 40 41 42 43 44 45 46 47 48 49 50
000
NZUS59 KLOT 240208
HRRLOT

CHICAGO AREA WEATHER ROUNDUP
NATIONAL WEATHER SERVICE CHICAGO/ROMEOVILLE IL
900 PM CDT TUE AUG 23 2016

NOTE: "FAIR" INDICATES FEW OR NO CLOUDS BELOW 12,000 FEET WITH NO
SIGNIFICANT WEATHER AND/OR OBSTRUCTIONS TO VISIBILITY.

* THESE STATIONS ARE NOT UNDER NWS QUALITY CONTROL. THEY ALSO MAY NOT
  REPORT WEATHER SUCH AS PRECIPITATION OR FOG.

ILZ005-006-012>014-019>023-240300-
NORTHEAST ILLINOIS

CITY           SKY/WX    TMP DP  RH WIND       PRES   REMARKS
OHARE          MOCLDY    75  61  61 S12       30.10F
MIDWAY         CLOUDY    78  61  55 S12G21    30.11F HX  80
AURORA         MOCLDY    73  65  75 SE10      30.10F
LANSING*       CLOUDY    74  61  64 SE7       30.13F
JOLIET*        CLOUDY    74  66  75 SE5       30.11F
WAUKEGAN       PTCLDY    74  61  63 SE6       30.09S
DUPAGE AIRPORT MOCLDY    75  62  64 S12       30.09F
WHEELING       MOCLDY    76  61  59 S13       30.11F
KANKAKEE*      CLOUDY    71  65  81 SE6       30.14S
MORRIS*        CLOUDY    73  66  77 S6        30.09S
LEWIS AIRPORT* MOCLDY    72  62  70 S10       30.11F
NORTHERLY ISL    N/A     75  60  59 S8          N/A
$$

WIZ051-052-058>065-066-070>072-240300-
SOUTHEAST WISCONSIN

CITY           SKY/WX    TMP DP  RH WIND       PRES   REMARKS
MILWAUKEE      PTCLDY    74  59  59 S8        30.09S
KENOSHA*       CLEAR     73  60  63 S9        30.09F
RACINE*        CLEAR     73  60  63 S10       30.11F
BURLINGTON     PTCLDY    68  59  72 SE6       30.09R
WAUKESHA       CLEAR     70  59  68 S5        30.10S
$$

INZ001>003-010>013-019-020-240300-
NORTHWEST INDIANA

CITY           SKY/WX    TMP DP  RH WIND       PRES   REMARKS
GARY*          CLOUDY    75  63  64 SE6       30.14F
MICHIGAN CITY* NOT AVBL
RENSSELAER*    NOT AVBL
VALPARAISO     PTCLDY    71  61  70 S6        30.16S
$$

LMZ740>746-240300-
SOUTHERN LAKE MICHIGAN

STATION/POSITION TIME  SKY/WX   TEMP WIND        PRES    VSBY
                                AIR  DIR/SP/G
                 (UTC)          (F)  (DEG/KT/KT) (MB)    (MI)
HARRISON CRIB    0100            75  170/ 16/ 17   N/A
BURNHAM HARBOR   0200            74  160/  8/ 11   N/A
CALUMET HARBOR   0100            77              1019.7F
BURNS HARBOR     0100            76  180/  5/ 16 1021.0F
MICHIGAN CITY    0130            74  160/  8/ 10   N/A
$$

ABBREVIATIONS USED IN REMARKS
   TC - TEMPERATURE IN CELSIUS
  WCI - WIND CHILL INDEX
   HX - HEAT INDEX
  VSB - VISIBILITY
$$



USA.gov is the U.S. government's official web portal to all federal, state and local government web resources and services.